C/2019 L1 ( PanSTARRS )

Japanese version
Home page
Updated on September 17, 2019

---------------------------------------------------------------------

* Profile

Discovery Date June 12, 2019
Magnitude 20.1 mag
Discoverer Pan-STARRS 2 telescope (Haleakala)

* Pictures

* Orbital Elements

Epoch 2019 Aug. 25.0 TT = JDT 2458720.5
T 2019 Aug. 11.30039 TT                                 Williams
q   2.8903181            (2000.0)            P               Q
n   0.03190082     Peri.   49.92208     +0.55281617     +0.81636506
a   9.8461878      Node   254.41077     -0.80759207     +0.47542365
e   0.7064531      Incl.    9.99393     -0.20540040     +0.32790310
P  30.9
From 78 observations 2019 May 30-Aug. 3, mean residual 0".3.

* Magnitudes Graph

        m1 = 13.0 + 5 log d + 10.0 log r

---------------------------------------------------------------------

The orbital elements are published on M.P.E.C. 2019-Q135.
The magnitudes graphs are made with Comet for Windows.

---------------------------------------------------------------------

Copyright(C) Seiichi Yoshida (comet@aerith.net). All rights reserved.